Year,Month,Day,Hour,Minute,Value (Times are PST for windgust in km/hr)
2015,08,30,00,00,1.60
2015,08,30,00,01,3.20
2015,08,30,00,02,1.60
2015,08,30,00,09,1.60
2015,08,30,00,10,1.60
2015,08,30,00,11,1.60
2015,08,30,00,12,3.20
2015,08,30,00,13,3.20
2015,08,30,00,14,1.60
2015,08,30,00,16,1.60
2015,08,30,00,17,3.20
2015,08,30,00,18,1.60
2015,08,30,00,19,3.20
2015,08,30,00,20,3.20
2015,08,30,00,21,1.60
2015,08,30,00,22,3.20
2015,08,30,00,23,3.20
2015,08,30,00,24,3.20
2015,08,30,00,25,3.20
2015,08,30,00,26,3.20
2015,08,30,00,27,4.80
2015,08,30,00,28,4.80
2015,08,30,00,29,4.80
2015,08,30,00,30,8.10
2015,08,30,00,31,4.80
2015,08,30,00,32,4.80
2015,08,30,00,33,8.10
2015,08,30,00,34,6.40
2015,08,30,00,35,4.80
2015,08,30,00,36,1.60
2015,08,30,00,37,3.20
2015,08,30,00,38,3.20
2015,08,30,00,39,3.20
2015,08,30,00,41,1.60
2015,08,30,00,42,3.20
2015,08,30,00,43,3.20
2015,08,30,00,44,1.60
2015,08,30,00,45,3.20
2015,08,30,00,46,3.20
2015,08,30,00,47,4.80
2015,08,30,00,48,4.80
2015,08,30,00,49,3.20
2015,08,30,00,50,3.20
2015,08,30,00,51,3.20
2015,08,30,00,52,3.20
2015,08,30,00,53,4.80
2015,08,30,00,54,3.20
2015,08,30,00,55,4.80
2015,08,30,00,56,1.60
2015,08,30,01,03,3.20
2015,08,30,01,04,3.20
2015,08,30,01,05,3.20
2015,08,30,01,06,3.20
2015,08,30,01,07,1.60
2015,08,30,01,08,1.60
2015,08,30,01,09,4.80
2015,08,30,01,10,3.20
2015,08,30,01,11,3.20
2015,08,30,01,12,4.80
2015,08,30,01,13,4.80
2015,08,30,01,14,6.40
2015,08,30,01,15,6.40
2015,08,30,01,16,4.80
2015,08,30,01,17,6.40
2015,08,30,01,18,6.40
2015,08,30,01,19,6.40
2015,08,30,01,20,6.40
2015,08,30,01,21,4.80
2015,08,30,01,22,3.20
2015,08,30,01,23,3.20
2015,08,30,01,24,6.40
2015,08,30,01,25,3.20
2015,08,30,01,26,3.20
2015,08,30,01,27,3.20
2015,08,30,01,28,3.20
2015,08,30,01,29,3.20
2015,08,30,01,30,3.20
2015,08,30,01,31,4.80
2015,08,30,01,32,3.20
2015,08,30,01,33,6.40
2015,08,30,01,34,6.40
2015,08,30,01,35,8.10
2015,08,30,01,36,6.40
2015,08,30,01,37,4.80
2015,08,30,01,38,1.60
2015,08,30,01,39,3.20
2015,08,30,01,40,4.80
2015,08,30,01,41,3.20
2015,08,30,01,42,3.20
2015,08,30,01,43,3.20
2015,08,30,01,44,8.10
2015,08,30,01,45,4.80
2015,08,30,01,46,4.80
2015,08,30,01,47,8.10
2015,08,30,01,48,9.60
2015,08,30,01,49,9.60
2015,08,30,01,50,11.30
2015,08,30,01,51,9.60
2015,08,30,01,52,16.10
2015,08,30,01,53,11.30
2015,08,30,01,54,12.90
2015,08,30,01,55,11.30
2015,08,30,01,56,12.90
2015,08,30,01,57,9.60
2015,08,30,01,58,8.10
2015,08,30,01,59,11.30
2015,08,30,02,00,9.60
2015,08,30,02,01,9.60
2015,08,30,02,02,16.10
2015,08,30,02,03,11.30
2015,08,30,02,04,16.10
2015,08,30,02,05,12.90
2015,08,30,02,06,12.90
2015,08,30,02,07,12.90
2015,08,30,02,08,12.90
2015,08,30,02,09,9.60
2015,08,30,02,10,12.90
2015,08,30,02,11,9.60
2015,08,30,02,12,8.10
2015,08,30,02,13,11.30
2015,08,30,02,14,8.10
2015,08,30,02,15,11.30
2015,08,30,02,16,11.30
2015,08,30,02,17,11.30
2015,08,30,02,18,11.30
2015,08,30,02,19,16.10
2015,08,30,02,20,14.50
2015,08,30,02,21,6.40
2015,08,30,02,22,11.30
2015,08,30,02,23,11.30
2015,08,30,02,24,8.10
2015,08,30,02,25,11.30
2015,08,30,02,26,14.50
2015,08,30,02,27,9.60
2015,08,30,02,28,8.10
2015,08,30,02,29,8.10
2015,08,30,02,30,12.90
2015,08,30,02,31,12.90
2015,08,30,02,32,9.60
2015,08,30,02,33,8.10
2015,08,30,02,34,11.30
2015,08,30,02,35,11.30
2015,08,30,02,36,12.90
2015,08,30,02,37,16.10
2015,08,30,02,38,12.90
2015,08,30,02,39,11.30
2015,08,30,02,40,12.90
2015,08,30,02,41,9.60
2015,08,30,02,42,17.70
2015,08,30,02,43,14.50
2015,08,30,02,44,16.10
2015,08,30,02,45,11.30
2015,08,30,02,46,14.50
2015,08,30,02,47,12.90
2015,08,30,02,48,9.60
2015,08,30,02,49,8.10
2015,08,30,02,50,9.60
2015,08,30,02,51,8.10
2015,08,30,02,52,11.30
2015,08,30,02,53,12.90
2015,08,30,02,54,11.30
2015,08,30,02,55,11.30
2015,08,30,02,56,8.10
2015,08,30,02,57,12.90
2015,08,30,02,58,14.50
2015,08,30,02,59,11.30
2015,08,30,03,00,12.90
2015,08,30,03,01,11.30
2015,08,30,03,02,9.60
2015,08,30,03,03,14.50
2015,08,30,10,04,9.60
2015,08,30,10,05,20.90
2015,08,30,10,06,11.30
2015,08,30,10,07,8.10
2015,08,30,10,08,16.10
2015,08,30,10,09,12.90
2015,08,30,10,10,6.40
2015,08,30,10,11,8.10
2015,08,30,10,12,6.40
2015,08,30,10,13,11.30
2015,08,30,10,14,11.30
2015,08,30,10,15,9.60
2015,08,30,10,16,8.10
2015,08,30,10,17,11.30
2015,08,30,10,18,12.90
2015,08,30,10,19,11.30
2015,08,30,10,20,12.90
2015,08,30,10,21,9.60
2015,08,30,10,22,8.10
2015,08,30,10,23,12.90
2015,08,30,10,24,14.50
2015,08,30,10,25,16.10
2015,08,30,10,26,12.90
2015,08,30,10,27,20.90
2015,08,30,10,28,19.30
2015,08,30,10,29,17.70
2015,08,30,10,30,12.90
2015,08,30,10,31,11.30
2015,08,30,10,32,12.90
2015,08,30,10,33,14.50
2015,08,30,10,34,20.90
2015,08,30,10,35,19.30
2015,08,30,10,36,9.60
2015,08,30,10,37,14.50
2015,08,30,10,38,14.50
2015,08,30,10,39,16.10
2015,08,30,10,40,11.30
2015,08,30,10,41,16.10
2015,08,30,10,42,16.10
2015,08,30,10,43,14.50
2015,08,30,10,44,12.90
2015,08,30,10,45,11.30
2015,08,30,10,46,9.60
2015,08,30,10,47,11.30
2015,08,30,10,48,8.10
2015,08,30,10,49,9.60
2015,08,30,10,50,16.10
2015,08,30,10,51,17.70
2015,08,30,10,52,16.10
2015,08,30,10,53,14.50
2015,08,30,10,54,16.10
2015,08,30,10,55,14.50
2015,08,30,10,56,19.30
2015,08,30,10,57,17.70
2015,08,30,10,58,11.30
2015,08,30,10,59,22.50
2015,08,30,11,00,19.30
2015,08,30,11,01,22.50
2015,08,30,11,02,20.90
2015,08,30,11,03,22.50
2015,08,30,11,04,24.20
2015,08,30,11,05,14.50
2015,08,30,11,06,14.50
2015,08,30,11,07,19.30
2015,08,30,11,08,16.10
2015,08,30,11,09,11.30
2015,08,30,11,10,11.30
2015,08,30,11,11,11.30
2015,08,30,11,12,11.30
2015,08,30,11,13,11.30
2015,08,30,11,14,17.70
2015,08,30,11,15,17.70
2015,08,30,11,16,14.50
2015,08,30,11,17,12.90
2015,08,30,11,18,6.40
2015,08,30,11,19,11.30
2015,08,30,11,20,25.70
2015,08,30,11,21,22.50
2015,08,30,11,22,8.10
2015,08,30,11,23,19.30
2015,08,30,11,24,16.10
2015,08,30,11,25,19.30
2015,08,30,11,26,29.00
2015,08,30,11,27,22.50
2015,08,30,11,28,20.90
2015,08,30,11,29,14.50
2015,08,30,11,30,17.70
2015,08,30,11,31,19.30
2015,08,30,11,32,25.70
2015,08,30,11,33,19.30
2015,08,30,11,34,20.90
2015,08,30,11,35,17.70
2015,08,30,11,36,19.30
2015,08,30,11,37,14.50
2015,08,30,11,38,11.30
2015,08,30,11,39,17.70
2015,08,30,11,40,20.90
2015,08,30,11,41,24.20
2015,08,30,11,42,22.50
2015,08,30,11,43,19.30
2015,08,30,11,44,27.40
2015,08,30,11,45,12.90
2015,08,30,11,46,16.10
2015,08,30,11,47,9.60
2015,08,30,11,48,19.30
2015,08,30,11,49,27.40
2015,08,30,11,50,17.70
2015,08,30,11,51,19.30
2015,08,30,11,52,19.30
2015,08,30,11,53,22.50
2015,08,30,11,54,14.50
2015,08,30,11,55,19.30
2015,08,30,11,56,25.70
2015,08,30,11,57,20.90
2015,08,30,11,58,16.10
2015,08,30,11,59,19.30
2015,08,30,12,00,17.70
2015,08,30,12,01,16.10
2015,08,30,12,02,19.30
2015,08,30,12,03,16.10
2015,08,30,12,04,16.10
2015,08,30,12,05,19.30
2015,08,30,12,06,19.30
2015,08,30,12,07,19.30
2015,08,30,12,08,19.30
2015,08,30,12,09,22.50
2015,08,30,12,10,14.50
2015,08,30,12,11,22.50
2015,08,30,12,12,22.50
2015,08,30,12,13,14.50
2015,08,30,12,14,24.20
2015,08,30,12,15,19.30
2015,08,30,12,16,22.50
2015,08,30,12,17,20.90
2015,08,30,12,18,19.30
2015,08,30,12,19,25.70
2015,08,30,12,20,14.50
2015,08,30,12,21,19.30
2015,08,30,12,22,14.50
2015,08,30,12,23,20.90
2015,08,30,12,24,17.70
2015,08,30,12,25,24.20
2015,08,30,12,26,17.70
2015,08,30,12,27,19.30
2015,08,30,12,28,20.90
2015,08,30,12,29,24.20
2015,08,30,12,30,24.20
2015,08,30,12,31,20.90
2015,08,30,12,32,24.20
2015,08,30,12,33,24.20
2015,08,30,12,34,24.20
2015,08,30,12,35,12.90
2015,08,30,12,36,19.30
2015,08,30,12,37,19.30
2015,08,30,12,38,19.30
2015,08,30,12,39,19.30
2015,08,30,12,40,14.50
2015,08,30,12,41,27.40
2015,08,30,12,42,27.40
2015,08,30,12,43,20.90
2015,08,30,12,44,22.50
2015,08,30,12,45,27.40
2015,08,30,12,46,22.50
2015,08,30,12,47,14.50
2015,08,30,12,48,24.20
2015,08,30,12,49,19.30
2015,08,30,12,50,22.50
2015,08,30,12,51,20.90
2015,08,30,12,52,20.90
2015,08,30,12,53,22.50
2015,08,30,12,54,19.30
2015,08,30,12,55,22.50
2015,08,30,12,56,17.70
2015,08,30,12,57,17.70
2015,08,30,12,58,17.70
2015,08,30,12,59,19.30
2015,08,30,13,00,22.50
2015,08,30,13,01,19.30
2015,08,30,13,02,16.10
2015,08,30,13,03,25.70
2015,08,30,13,04,22.50
2015,08,30,13,05,20.90
2015,08,30,13,06,19.30
2015,08,30,13,07,24.20
2015,08,30,13,08,24.20
2015,08,30,13,09,19.30
2015,08,30,13,10,20.90
2015,08,30,13,11,32.20
2015,08,30,13,12,24.20
2015,08,30,13,13,16.10
2015,08,30,13,14,11.30
2015,08,30,13,15,16.10
2015,08,30,13,16,24.20
2015,08,30,13,17,24.20
2015,08,30,13,18,14.50
2015,08,30,13,19,12.90
2015,08,30,13,20,9.60
2015,08,30,13,21,20.90
2015,08,30,13,22,20.90
2015,08,30,13,23,20.90
2015,08,30,13,24,16.10
2015,08,30,13,25,20.90
2015,08,30,13,26,20.90
2015,08,30,13,27,20.90
2015,08,30,13,28,22.50
2015,08,30,13,29,27.40
2015,08,30,13,30,29.00
2015,08,30,13,31,16.10
2015,08,30,13,32,17.70
2015,08,30,13,33,17.70
2015,08,30,13,34,9.60
2015,08,30,13,35,12.90
2015,08,30,13,36,16.10
2015,08,30,13,37,12.90
2015,08,30,13,38,19.30
2015,08,30,13,39,20.90
2015,08,30,13,40,16.10
2015,08,30,13,41,19.30
2015,08,30,13,42,24.20
2015,08,30,13,43,29.00
2015,08,30,13,44,17.70
2015,08,30,13,45,20.90
2015,08,30,13,46,22.50
2015,08,30,13,47,14.50
2015,08,30,13,48,22.50
2015,08,30,13,49,16.10
2015,08,30,13,50,17.70
2015,08,30,13,51,17.70
2015,08,30,13,52,22.50
2015,08,30,13,53,14.50
2015,08,30,13,54,19.30
2015,08,30,13,55,16.10
2015,08,30,13,56,17.70
2015,08,30,13,57,16.10
2015,08,30,13,58,22.50
2015,08,30,13,59,17.70
2015,08,30,14,00,16.10
2015,08,30,14,01,11.30
2015,08,30,14,02,12.90
2015,08,30,14,03,16.10
2015,08,30,14,04,12.90
2015,08,30,14,05,14.50
2015,08,30,14,06,24.20
2015,08,30,14,07,25.70
2015,08,30,14,08,11.30
2015,08,30,14,09,24.20
2015,08,30,14,10,22.50
2015,08,30,14,11,22.50
2015,08,30,14,12,25.70
2015,08,30,14,13,20.90
2015,08,30,14,14,19.30
2015,08,30,14,15,12.90
2015,08,30,14,16,14.50
2015,08,30,14,17,17.70
2015,08,30,14,18,20.90
2015,08,30,14,19,19.30
2015,08,30,14,20,11.30
2015,08,30,14,21,19.30
2015,08,30,14,22,19.30
2015,08,30,14,23,11.30
2015,08,30,14,24,14.50
2015,08,30,14,25,11.30
2015,08,30,14,26,17.70
2015,08,30,14,27,12.90
2015,08,30,14,28,16.10
2015,08,30,14,29,17.70
2015,08,30,14,30,9.60
2015,08,30,14,31,12.90
2015,08,30,14,32,16.10
2015,08,30,14,33,12.90
2015,08,30,14,34,19.30
2015,08,30,14,35,22.50
2015,08,30,14,36,14.50
2015,08,30,14,37,11.30
2015,08,30,14,38,20.90
2015,08,30,14,39,29.00
2015,08,30,14,40,19.30
2015,08,30,14,41,17.70
2015,08,30,14,42,16.10
2015,08,30,14,43,12.90
2015,08,30,14,44,14.50
2015,08,30,14,45,14.50
2015,08,30,14,46,20.90
2015,08,30,14,47,8.10
2015,08,30,14,48,19.30
2015,08,30,14,49,20.90
2015,08,30,14,50,25.70
2015,08,30,14,51,19.30
2015,08,30,14,52,14.50
2015,08,30,14,53,11.30
2015,08,30,14,54,16.10
2015,08,30,14,55,19.30
2015,08,30,14,56,19.30
2015,08,30,14,57,19.30
2015,08,30,14,58,25.70
2015,08,30,14,59,17.70
2015,08,30,15,00,16.10
2015,08,30,15,01,12.90
2015,08,30,15,02,9.60
2015,08,30,15,03,16.10
2015,08,30,15,04,8.10
2015,08,30,15,05,11.30
2015,08,30,15,06,14.50
2015,08,30,15,07,12.90
2015,08,30,15,08,8.10
2015,08,30,15,09,9.60
2015,08,30,15,10,11.30
2015,08,30,15,11,9.60
2015,08,30,15,12,12.90
2015,08,30,15,13,11.30
2015,08,30,15,14,12.90
2015,08,30,15,15,17.70
2015,08,30,15,16,17.70
2015,08,30,15,17,11.30
2015,08,30,15,18,9.60
2015,08,30,15,19,12.90
2015,08,30,15,20,12.90
2015,08,30,15,21,14.50
2015,08,30,15,22,19.30
2015,08,30,15,23,19.30
2015,08,30,15,24,19.30
2015,08,30,15,25,14.50
2015,08,30,15,26,14.50
2015,08,30,15,27,17.70
2015,08,30,15,28,14.50
2015,08,30,15,29,20.90
2015,08,30,15,30,17.70
2015,08,30,15,31,22.50
2015,08,30,15,32,24.20
2015,08,30,15,33,11.30
2015,08,30,15,34,22.50
2015,08,30,15,35,12.90
2015,08,30,15,36,11.30
2015,08,30,15,37,16.10
2015,08,30,15,38,19.30
2015,08,30,15,39,14.50
2015,08,30,15,40,16.10
2015,08,30,15,41,11.30
2015,08,30,15,42,17.70
2015,08,30,15,43,19.30
2015,08,30,15,44,11.30
2015,08,30,15,45,24.20
2015,08,30,15,46,20.90
2015,08,30,15,47,27.40
2015,08,30,15,48,14.50
2015,08,30,15,49,17.70
2015,08,30,15,50,17.70
2015,08,30,15,51,27.40
2015,08,30,15,52,16.10
2015,08,30,15,53,22.50
2015,08,30,15,54,24.20
2015,08,30,15,55,22.50
2015,08,30,15,56,25.70
2015,08,30,15,57,22.50
2015,08,30,15,58,20.90
2015,08,30,15,59,12.90
2015,08,30,16,00,20.90
2015,08,30,16,01,19.30
2015,08,30,16,02,22.50
2015,08,30,16,03,20.90
2015,08,30,16,04,14.50
2015,08,30,16,05,19.30
2015,08,30,16,06,17.70
2015,08,30,16,07,20.90
2015,08,30,16,08,16.10
2015,08,30,16,09,19.30
2015,08,30,16,10,19.30
2015,08,30,16,11,12.90
2015,08,30,16,12,20.90
2015,08,30,16,13,22.50
2015,08,30,16,14,11.30
2015,08,30,16,15,17.70
2015,08,30,16,16,16.10
2015,08,30,16,17,17.70
2015,08,30,16,18,16.10
2015,08,30,16,19,25.70
2015,08,30,16,20,17.70
2015,08,30,16,21,16.10
2015,08,30,16,22,20.90
2015,08,30,16,23,14.50
2015,08,30,16,24,11.30
2015,08,30,16,25,16.10
2015,08,30,16,26,20.90
2015,08,30,16,27,9.60
2015,08,30,16,28,16.10
2015,08,30,16,29,12.90
2015,08,30,16,30,20.90
2015,08,30,16,31,16.10
2015,08,30,16,32,14.50
2015,08,30,16,33,14.50
2015,08,30,16,34,12.90
2015,08,30,16,35,16.10
2015,08,30,16,36,14.50
2015,08,30,16,37,8.10
2015,08,30,16,38,8.10
2015,08,30,16,39,22.50
2015,08,30,16,40,17.70
2015,08,30,16,41,19.30
2015,08,30,16,42,12.90
2015,08,30,16,43,14.50
2015,08,30,16,44,19.30
2015,08,30,16,45,19.30
2015,08,30,16,46,19.30
2015,08,30,16,47,16.10
2015,08,30,16,48,14.50
2015,08,30,16,49,16.10
2015,08,30,16,50,12.90
2015,08,30,16,51,14.50
2015,08,30,16,52,16.10
2015,08,30,16,53,14.50
2015,08,30,16,54,8.10
2015,08,30,16,55,17.70
2015,08,30,16,56,16.10
2015,08,30,16,57,16.10
2015,08,30,16,58,14.50
2015,08,30,16,59,11.30
2015,08,30,17,00,12.90
2015,08,30,17,01,14.50
2015,08,30,17,02,14.50
2015,08,30,17,03,16.10
2015,08,30,17,04,11.30
2015,08,30,17,05,14.50
2015,08,30,17,06,14.50
2015,08,30,17,07,17.70
2015,08,30,17,08,17.70
2015,08,30,17,09,14.50
2015,08,30,17,10,19.30
2015,08,30,17,11,16.10
2015,08,30,17,12,19.30
2015,08,30,17,13,14.50
2015,08,30,17,14,24.20
2015,08,30,17,15,22.50
2015,08,30,17,16,16.10
2015,08,30,17,17,12.90
2015,08,30,17,18,16.10
2015,08,30,17,19,17.70
2015,08,30,17,20,17.70
2015,08,30,17,21,14.50
2015,08,30,17,22,9.60
2015,08,30,17,23,8.10
2015,08,30,17,24,4.80
2015,08,30,17,25,6.40
2015,08,30,17,26,8.10
2015,08,30,17,27,14.50
2015,08,30,17,28,19.30
2015,08,30,17,29,9.60
2015,08,30,17,30,16.10
2015,08,30,17,31,14.50
2015,08,30,17,32,16.10
2015,08,30,17,33,12.90
2015,08,30,17,34,12.90
2015,08,30,17,35,14.50
2015,08,30,17,36,19.30
2015,08,30,17,37,19.30
2015,08,30,17,38,12.90
2015,08,30,17,39,20.90
2015,08,30,17,40,16.10
2015,08,30,17,41,12.90
2015,08,30,17,42,14.50
2015,08,30,17,43,17.70
2015,08,30,17,44,14.50
2015,08,30,17,45,11.30
2015,08,30,17,46,16.10
2015,08,30,17,47,20.90
2015,08,30,17,48,17.70
2015,08,30,17,49,16.10
2015,08,30,17,50,12.90
2015,08,30,17,51,12.90
2015,08,30,17,52,12.90
2015,08,30,17,53,14.50
2015,08,30,17,54,16.10
2015,08,30,17,55,12.90
2015,08,30,17,56,20.90
2015,08,30,17,57,20.90
2015,08,30,17,58,20.90
2015,08,30,17,59,17.70
2015,08,30,18,00,11.30
2015,08,30,18,01,20.90
2015,08,30,18,02,14.50
2015,08,30,18,03,16.10
2015,08,30,18,04,16.10
2015,08,30,18,05,19.30
2015,08,30,18,06,14.50
2015,08,30,18,07,20.90
2015,08,30,18,08,22.50
2015,08,30,18,09,19.30
2015,08,30,18,10,16.10
2015,08,30,18,11,19.30
2015,08,30,18,12,14.50
2015,08,30,18,13,19.30
2015,08,30,18,14,20.90
2015,08,30,18,15,17.70
2015,08,30,18,16,17.70
2015,08,30,18,17,12.90
2015,08,30,18,18,12.90
2015,08,30,18,19,8.10
2015,08,30,18,20,14.50
2015,08,30,18,21,16.10
2015,08,30,18,22,11.30
2015,08,30,18,23,17.70
2015,08,30,18,24,19.30
2015,08,30,18,25,19.30
2015,08,30,18,26,29.00
2015,08,30,18,27,32.20
2015,08,30,18,28,29.00
2015,08,30,18,29,17.70
2015,08,30,18,30,30.60
2015,08,30,18,31,24.20
2015,08,30,18,32,20.90
2015,08,30,18,33,22.50
2015,08,30,18,34,19.30
2015,08,30,18,35,14.50
2015,08,30,18,36,27.40
2015,08,30,18,37,16.10
2015,08,30,18,38,16.10
2015,08,30,18,39,12.90
2015,08,30,18,40,14.50
2015,08,30,18,41,12.90
2015,08,30,18,42,12.90
2015,08,30,18,43,14.50
2015,08,30,18,44,17.70
2015,08,30,18,45,24.20
2015,08,30,18,46,12.90
2015,08,30,18,47,9.60
2015,08,30,18,48,16.10
2015,08,30,18,49,24.20
2015,08,30,18,50,22.50
2015,08,30,18,51,14.50
2015,08,30,18,52,16.10
2015,08,30,18,53,17.70
2015,08,30,18,54,16.10
2015,08,30,18,55,8.10
2015,08,30,18,56,16.10
2015,08,30,18,57,14.50
2015,08,30,18,58,11.30
2015,08,30,18,59,12.90
2015,08,30,19,00,12.90
2015,08,30,19,01,11.30
2015,08,30,19,02,14.50
2015,08,30,19,03,12.90
2015,08,30,19,04,17.70
2015,08,30,19,05,16.10
2015,08,30,19,06,17.70
2015,08,30,19,07,12.90
2015,08,30,19,08,14.50
2015,08,30,19,09,6.40
2015,08,30,19,10,9.60
2015,08,30,19,11,8.10
2015,08,30,19,12,19.30
2015,08,30,19,13,12.90
2015,08,30,19,14,12.90
2015,08,30,19,15,17.70
2015,08,30,19,16,16.10
2015,08,30,19,17,17.70
2015,08,30,19,18,17.70
2015,08,30,19,19,17.70
2015,08,30,19,20,25.70
2015,08,30,19,21,20.90
2015,08,30,19,22,12.90
2015,08,30,19,23,16.10
2015,08,30,19,24,16.10
2015,08,30,19,25,14.50
2015,08,30,19,26,11.30
2015,08,30,19,27,14.50
2015,08,30,19,28,20.90
2015,08,30,19,29,12.90
2015,08,30,19,30,6.40
2015,08,30,19,31,25.70
2015,08,30,19,32,16.10
2015,08,30,19,33,12.90
2015,08,30,19,34,14.50
2015,08,30,19,35,11.30
2015,08,30,19,36,17.70
2015,08,30,19,37,11.30
2015,08,30,19,38,20.90
2015,08,30,19,39,19.30
2015,08,30,19,40,12.90
2015,08,30,19,41,14.50
2015,08,30,19,42,24.20
2015,08,30,19,43,9.60
2015,08,30,19,44,19.30
2015,08,30,19,45,16.10
2015,08,30,19,46,24.20
2015,08,30,19,47,14.50
2015,08,30,19,48,24.20
2015,08,30,19,49,17.70
2015,08,30,19,50,14.50
2015,08,30,19,51,12.90
2015,08,30,19,52,12.90
2015,08,30,19,53,6.40
2015,08,30,19,54,11.30
2015,08,30,19,55,9.60
2015,08,30,19,56,32.20
2015,08,30,19,57,19.30
2015,08,30,19,58,22.50
2015,08,30,19,59,20.90
2015,08,30,20,00,9.60
2015,08,30,20,01,12.90
2015,08,30,20,02,12.90
2015,08,30,20,03,9.60
2015,08,30,20,04,17.70
2015,08,30,20,05,24.20
2015,08,30,20,06,12.90
2015,08,30,20,07,22.50
2015,08,30,20,08,22.50
2015,08,30,20,09,24.20
2015,08,30,20,10,20.90
2015,08,30,20,11,32.20
2015,08,30,20,12,16.10
2015,08,30,20,13,17.70
2015,08,30,20,14,19.30
2015,08,30,20,15,19.30
2015,08,30,20,16,19.30
2015,08,30,20,17,9.60
2015,08,30,20,18,25.70
2015,08,30,20,19,30.60
2015,08,30,20,20,17.70
2015,08,30,20,21,20.90
2015,08,30,20,22,12.90
2015,08,30,20,23,20.90
2015,08,30,20,24,27.40
2015,08,30,20,25,22.50
2015,08,30,20,26,22.50
2015,08,30,20,27,41.80
2015,08,30,20,28,25.70
2015,08,30,20,29,19.30
2015,08,30,20,30,11.30
2015,08,30,20,31,20.90
2015,08,30,20,32,12.90
2015,08,30,20,33,12.90
2015,08,30,20,34,20.90
2015,08,30,20,35,22.50
2015,08,30,20,36,12.90
2015,08,30,20,37,14.50
2015,08,30,20,38,19.30
2015,08,30,20,39,20.90
2015,08,30,20,40,11.30
2015,08,30,20,41,25.70
2015,08,30,20,42,16.10
2015,08,30,20,43,11.30
2015,08,30,20,44,19.30
2015,08,30,20,45,14.50
2015,08,30,20,46,24.20
2015,08,30,20,47,22.50
2015,08,30,20,48,19.30
2015,08,30,20,49,16.10
2015,08,30,20,50,17.70
2015,08,30,20,51,27.40
2015,08,30,20,52,16.10
2015,08,30,20,53,16.10
2015,08,30,20,54,14.50
2015,08,30,20,55,19.30
2015,08,30,20,56,24.20
2015,08,30,20,57,22.50
2015,08,30,20,58,14.50
2015,08,30,20,59,19.30
2015,08,30,21,00,22.50
2015,08,30,21,01,22.50
2015,08,30,21,02,19.30
2015,08,30,21,03,19.30
2015,08,30,21,04,17.70
2015,08,30,21,05,12.90
2015,08,30,21,06,11.30
2015,08,30,21,07,24.20
2015,08,30,21,08,20.90
2015,08,30,21,09,16.10
2015,08,30,21,10,24.20
2015,08,30,21,11,14.50
2015,08,30,21,12,14.50
2015,08,30,21,13,29.00
2015,08,30,21,14,16.10
2015,08,30,21,15,16.10
2015,08,30,21,16,22.50
2015,08,30,21,17,22.50
2015,08,30,21,18,14.50
2015,08,30,21,19,19.30
2015,08,30,21,20,27.40
2015,08,30,21,21,25.70
2015,08,30,21,22,22.50
2015,08,30,21,23,24.20
2015,08,30,21,24,19.30
2015,08,30,21,25,17.70
2015,08,30,21,26,22.50
2015,08,30,21,27,24.20
2015,08,30,21,28,27.40
2015,08,30,21,29,29.00
2015,08,30,21,30,22.50
2015,08,30,21,31,27.40
2015,08,30,21,32,27.40
2015,08,30,21,33,22.50
2015,08,30,21,34,19.30
2015,08,30,21,35,29.00
2015,08,30,21,36,30.60
2015,08,30,21,37,30.60
2015,08,30,21,38,25.70
2015,08,30,21,39,24.20
2015,08,30,21,40,27.40
2015,08,30,21,41,32.20
2015,08,30,21,42,20.90
2015,08,30,21,43,24.20
2015,08,30,21,44,30.60
2015,08,30,21,45,25.70
2015,08,30,21,46,25.70
2015,08,30,21,47,25.70
2015,08,30,21,48,32.20
2015,08,30,21,49,32.20
2015,08,30,21,50,35.40
2015,08,30,21,51,29.00
2015,08,30,21,52,27.40
2015,08,30,21,53,35.40
2015,08,30,21,54,30.60
2015,08,30,21,55,25.70
2015,08,30,21,56,29.00
2015,08,30,21,57,33.80
2015,08,30,21,58,22.50
2015,08,30,21,59,32.20
2015,08,30,22,00,24.20
2015,08,30,22,01,38.60
2015,08,30,22,02,27.40
2015,08,30,22,03,22.50
2015,08,30,22,04,20.90
2015,08,30,22,05,16.10
2015,08,30,22,06,33.80
2015,08,30,22,07,24.20
2015,08,30,22,08,27.40
2015,08,30,22,09,27.40
2015,08,30,22,10,25.70
2015,08,30,22,11,25.70
2015,08,30,22,12,25.70
2015,08,30,22,13,29.00
2015,08,30,22,14,16.10
2015,08,30,22,15,19.30
2015,08,30,22,16,24.20
2015,08,30,22,17,17.70
2015,08,30,22,18,19.30
2015,08,30,22,19,22.50
2015,08,30,22,20,17.70
2015,08,30,22,21,22.50
2015,08,30,22,22,20.90
2015,08,30,22,23,19.30
2015,08,30,22,24,20.90
2015,08,30,22,25,19.30
2015,08,30,22,26,19.30
2015,08,30,22,27,22.50
2015,08,30,22,28,19.30
2015,08,30,22,29,14.50
2015,08,30,22,30,22.50
2015,08,30,22,31,19.30
2015,08,30,22,32,14.50
2015,08,30,22,33,20.90
2015,08,30,22,34,20.90
2015,08,30,22,35,16.10
2015,08,30,22,36,12.90
2015,08,30,22,37,19.30
2015,08,30,22,38,24.20
2015,08,30,22,39,17.70
2015,08,30,22,40,25.70
2015,08,30,22,41,20.90
2015,08,30,22,42,20.90
2015,08,30,22,43,20.90
2015,08,30,22,44,19.30
2015,08,30,22,45,16.10
2015,08,30,22,46,16.10
2015,08,30,22,47,19.30
2015,08,30,22,48,14.50
2015,08,30,22,49,9.60
2015,08,30,22,50,17.70
2015,08,30,22,51,24.20
2015,08,30,22,52,17.70
2015,08,30,22,53,14.50
2015,08,30,22,54,16.10
2015,08,30,22,55,14.50
2015,08,30,22,56,9.60
2015,08,30,22,57,14.50
2015,08,30,22,58,17.70
2015,08,30,22,59,14.50
2015,08,30,23,00,14.50
2015,08,30,23,01,12.90
2015,08,30,23,02,8.10
2015,08,30,23,03,9.60
2015,08,30,23,04,11.30
2015,08,30,23,05,14.50
2015,08,30,23,06,11.30
2015,08,30,23,07,12.90
2015,08,30,23,08,17.70
2015,08,30,23,09,12.90
2015,08,30,23,10,16.10
2015,08,30,23,11,11.30
2015,08,30,23,12,17.70
2015,08,30,23,13,12.90
2015,08,30,23,14,11.30
2015,08,30,23,15,11.30
2015,08,30,23,16,6.40
2015,08,30,23,17,14.50
2015,08,30,23,18,9.60
2015,08,30,23,19,4.80
2015,08,30,23,20,12.90
2015,08,30,23,21,14.50
2015,08,30,23,22,11.30
2015,08,30,23,23,9.60
2015,08,30,23,24,14.50
2015,08,30,23,25,14.50
2015,08,30,23,26,12.90
2015,08,30,23,27,6.40
2015,08,30,23,28,4.80
2015,08,30,23,29,9.60
2015,08,30,23,30,9.60
2015,08,30,23,31,11.30
2015,08,30,23,32,3.20
2015,08,30,23,33,6.40
2015,08,30,23,34,11.30
2015,08,30,23,35,8.10
2015,08,30,23,36,12.90
2015,08,30,23,37,4.80
2015,08,30,23,38,12.90
2015,08,30,23,39,4.80
2015,08,30,23,40,3.20
2015,08,30,23,41,9.60
2015,08,30,23,42,3.20
2015,08,30,23,43,4.80
2015,08,30,23,44,6.40
2015,08,30,23,45,4.80
2015,08,30,23,46,6.40
2015,08,30,23,47,4.80
2015,08,30,23,48,4.80
2015,08,30,23,49,14.50
2015,08,30,23,50,9.60
2015,08,30,23,51,8.10
2015,08,30,23,52,6.40
2015,08,30,23,53,11.30
2015,08,30,23,54,6.40
2015,08,30,23,55,3.20
2015,08,30,23,56,3.20
2015,08,30,23,57,9.60
2015,08,30,23,58,4.80
2015,08,30,23,59,4.80
